Zurück zum Katalog

DMSP 5D-2 F15

USA 147

AktivWetterSSO
NORAD 25991·PAYLOAD·🇺🇸 United States

Gestartet Dec 12, 1999 von Vandenberg Space Force Base

Loading…

Nächste Überflüge (nächste 24 Stunden)

TLE

AktuellSource: Space-Track

Epoche: Sep 14, 2026, 15:52 UTC

1 25991U 99067A   26257.66127064  .00000060  00000-0  51900-4 0  9996
2 25991  98.9890 297.3041 0011035 107.0146   4.0168 14.17586884383326

Verfolge DMSP 5D-2 F15 in Echtzeit mit AllMySat

Download on the App Store